This demonstration page uses our WeatherBlox Daily Observations layout. Learn more.

Left ArrowRight Arrow

Hourly Observations for May 6, 2015

Temp ( °F °C ) Dew Point ( °F °C ) Humidity (%) Winds ( mph kmh ) Pressure ( in mb ) Visibility ( mi km ) Precip ( " mm )
12:16 am 00:16 Clear 64 18 45 7 49 49 S 3 6 30.18 1022 10 16.0934 N/A
12:36 am 00:36 Clear 64 18 46 8 52 52 S 3 6 30.18 1022 10 16.0934 N/A
12:56 am 00:56 Clear 63 17 48 9 59 59 Calm 30.18 1022 10 16.0934 N/A
1:16 am 01:16 Clear 61 16 48 9 63 63 Calm 30.18 1022 10 16.0934 N/A
1:36 am 01:36 Clear 61 16 46 8 59 59 Calm 30.18 1022 10 16.0934 N/A
1:56 am 01:56 Clear 59 15 48 9 68 68 SSE 3 6 30.18 1022 10 16.0934 N/A
2:16 am 02:16 Clear 61 16 46 8 59 59 SSE 3 6 30.18 1022 10 16.0934 N/A
2:36 am 02:36 Clear 61 16 48 9 63 63 Calm 30.18 1022 10 16.0934 N/A
2:56 am 02:56 Clear 61 16 48 9 63 63 Calm 30.18 1022 10 16.0934 N/A
3:16 am 03:16 Partly Cloudy 61 16 48 9 63 63 Calm 30.18 1022 10 16.0934 N/A
3:36 am 03:36 Partly Cloudy 61 16 48 9 63 63 NNE 3 6 30.18 1022 10 16.0934 N/A
3:56 am 03:56 Clear 59 15 52 11 77 77 NNE 3 6 30.18 1022 10 16.0934 N/A
4:16 am 04:16 Clear 57 14 52 11 82 82 Calm 30.18 1022 10 16.0934 N/A
4:36 am 04:36 Clear 57 14 54 12 88 88 E 3 6 30.18 1022 10 16.0934 N/A
4:55 am 04:55 Clear 57 14 57 14 100 100 Calm 30.18 1022 10 16.0934 N/A
5:16 am 05:16 Clear 55 13 55 13 100 100 Calm 30.21 1023 10 16.0934 N/A
5:36 am 05:36 Clear 55 13 N/A N/A Calm 30.21 1023 10 16.0934 N/A
5:56 am 05:56 Clear 55 13 N/A N/A Calm 30.21 1023 10 16.0934 N/A
6:16 am 06:16 Clear 55 13 N/A N/A SSE 3 6 30.21 1023 10 16.0934 N/A
6:36 am 06:36 Clear 55 13 N/A N/A SSE 3 6 30.21 1023 10 16.0934 N/A
6:56 am 06:56 Sunny 57 14 N/A N/A SSE 3 6 30.18 1022 10 16.0934 N/A
7:16 am 07:16 Sunny 55 13 N/A N/A Calm 30.21 1023 10 16.0934 N/A
7:35 am 07:35 Sunny 57 14 N/A N/A SSE 3 6 30.18 1022 10 16.0934 N/A
7:56 am 07:56 Sunny 61 16 52 11 72 72 SSE 3 6 30.18 1022 10 16.0934 N/A
8:16 am 08:16 Sunny 64 18 50 10 60 60 S 3 6 30.18 1022 10 16.0934 N/A
8:36 am 08:36 Sunny 66 19 48 9 52 52 S 3 6 30.18 1022 10 16.0934 N/A
8:56 am 08:56 Sunny 68 20 48 9 49 49 S 5 7 30.18 1022 10 16.0934 N/A
9:16 am 09:16 Sunny 70 21 46 8 43 43 S 5 7 30.18 1022 10 16.0934 N/A
9:36 am 09:36 Sunny 72 22 46 8 41 41 SW 3 6 30.18 1022 10 16.0934 N/A
9:56 am 09:56 Sunny 73 23 45 7 36 36 WNW 3 6 30.15 1021 10 16.0934 N/A
10:15 am 10:15 Sunny 75 24 45 7 34 34 Calm 30.15 1021 10 16.0934 N/A
10:36 am 10:36 Sunny 77 25 45 7 32 32 WNW 5 7 30.15 1021 10 16.0934 N/A
10:56 am 10:56 Sunny 79 26 41 5 26 26 W 6 9 30.15 1021 10 16.0934 N/A
11:16 am 11:16 Sunny 81 27 39 4 23 23 W 7 11 30.15 1021 10 16.0934 N/A
11:36 am 11:36 Sunny 81 27 37 3 21 21 WSW 6 9 30.15 1021 10 16.0934 N/A
11:55 am 11:55 Sunny 81 27 36 2 20 20 W 6 9 30.15 1021 10 16.0934 N/A
12:16 pm 12:16 Sunny 82 28 34 1 17 17 W 3 6 30.15 1021 10 16.0934 N/A
12:36 pm 12:36 Sunny 82 28 36 2 19 19 NW 3 6 30.15 1021 10 16.0934 N/A
12:56 pm 12:56 Sunny 82 28 32 0 16 16 S 6 9 30.15 1021 10 16.0934 N/A
1:16 pm 13:16 Sunny 82 28 32 0 16 16 SSW 6 9 30.15 1021 10 16.0934 N/A
1:36 pm 13:36 Sunny 84 29 32 0 15 15 Calm 30.15 1021 10 16.0934 N/A
1:56 pm 13:56 Sunny 84 29 34 1 16 16 WNW 6 9 30.15 1021 10 16.0934 N/A
2:16 pm 14:16 Sunny 84 29 28 -2 13 13 WSW 9 15 30.15 1021 10 16.0934 N/A
2:36 pm 14:36 Sunny 84 29 25 -4 11 11 SSW 8 13 30.15 1021 10 16.0934 N/A
2:56 pm 14:56 Sunny 86 30 27 -3 11 11 WSW 8 13 30.15 1021 10 16.0934 N/A
3:16 pm 15:16 Sunny 84 29 28 -2 13 13 Calm 30.12 1020 10 16.0934 N/A
3:36 pm 15:36 Sunny 84 29 27 -3 12 12 W 6 9 30.12 1020 10 16.0934 N/A
3:56 pm 15:56 Sunny 84 29 21 -6 10 10 Calm 30.12 1020 10 16.0934 N/A
4:16 pm 16:16 Sunny 84 29 25 -4 11 11 Calm 30.12 1020 10 16.0934 N/A
4:36 pm 16:36 Sunny 86 30 23 -5 10 10 W 3 6 30.09 1019 10 16.0934 N/A
4:56 pm 16:56 Sunny 86 30 23 -5 10 10 SSE 8 13 30.09 1019 10 16.0934 N/A
5:16 pm 17:16 Sunny 86 30 27 -3 11 11 SSE 5 7 30.09 1019 10 16.0934 N/A
5:36 pm 17:36 Sunny 86 30 27 -3 11 11 SSE 9 15 30.09 1019 10 16.0934 N/A
5:55 pm 17:55 Sunny 84 29 25 -4 11 11 SSE 7 11 30.09 1019 10 16.0934 N/A
6:16 pm 18:16 Sunny 84 29 27 -3 12 12 WSW 3 6 30.09 1019 10 16.0934 N/A
6:36 pm 18:36 Sunny 84 29 27 -3 12 12 Calm 30.09 1019 10 16.0934 N/A
6:56 pm 18:56 Sunny 84 29 27 -3 12 12 SW 5 7 30.06 1018 10 16.0934 N/A
7:16 pm 19:16 Sunny 82 28 27 -3 13 13 SSE 6 9 30.06 1018 10 16.0934 N/A
7:36 pm 19:36 Sunny 82 28 27 -3 13 13 SSE 5 7 30.06 1018 10 16.0934 N/A
7:56 pm 19:56 Sunny 81 27 27 -3 14 14 SE 3 6 30.06 1018 10 16.0934 N/A
8:16 pm 20:16 Sunny 79 26 32 0 18 18 Calm 30.06 1018 10 16.0934 N/A
8:36 pm 20:36 Sunny 77 25 34 1 21 21 SSE 3 6 30.06 1018 10 16.0934 N/A
8:56 pm 20:56 Clear 73 23 37 3 27 27 Calm 30.06 1018 10 16.0934 N/A
9:16 pm 21:16 Clear 72 22 39 4 31 31 Calm 30.09 1019 10 16.0934 N/A
9:36 pm 21:36 Clear 72 22 41 5 33 33 Calm 30.09 1019 10 16.0934 N/A
9:56 pm 21:56 Clear 68 20 43 6 40 40 Calm 30.12 1020 10 16.0934 N/A
10:16 pm 22:16 Clear 68 20 43 6 40 40 Calm 30.12 1020 10 16.0934 N/A
10:36 pm 22:36 Clear 66 19 45 7 46 46 Calm 30.12 1020 10 16.0934 N/A
10:56 pm 22:56 Clear 66 19 46 8 49 49 Calm 30.12 1020 10 16.0934 N/A
11:15 pm 23:15 Clear 66 19 45 7 46 46 Calm 30.12 1020 10 16.0934 N/A
11:36 pm 23:36 Clear 64 18 45 7 49 49 SE 3 6 30.12 1020 10 16.0934 N/A
11:56 pm 23:56 Clear 64 18 45 7 49 49 SE 3 6 30.12 1020 10 16.0934 N/A

Powered by AerisWeather